Погода в Вермдё

Швеция     59°21′27″N   18°30′23″E
В апреле 2022 года жителям России запретили посещать сайт meteo.paraplan.net по решению Генеральной прокуратуры. Аудитория сайта уменьшилась в 10 раз. Владельцы сайта не видят смысла в поддержке погодного сервера в таких условиях. Сайт будет закрыт в октябре.
темп.,
°C
ветер,
м/с
пор.,
м/с
влажн.,
%
обл.,
%
осадки,
мм/ч
давл.,
гПа
погр.,
м
3 октября, пн
пн323:00+11св3580100 0.1 1009215
02:00+11ссв3481100 0.2 1010202
05:00+10св3478100 0.1 1012222
08:00+10ссв22755 0.1 1013172
11:00+12сз33695 0.0 1014391
14:00+14ссз35624 0.0 1014471
17:00+13ссз57715 0.1 1014538
20:00+11ссз698155 0.2 1014593
4 октября, вт
вт423:00+11ссз712829 0.1 1013711
02:00+9ссз813835 0.1 1012551
05:00+9ссз713830 0.0 1012466
08:00+8ссз7127819 0.0 1012426
11:00+11сз610645 0.0 1012596
14:00+13зсз565826 0.0 1012485
17:00+13зсз356361 0.0 1011162
20:00+11юз367227 0.0 1011117
5 октября, ср
ср523:00+12юз5978100 0.0 1010257
02:00+12юз5985100 0.0 1009251
05:00+12юз61191100 0.1 1006361
08:00+12юз71290100 0.1 1005509
11:00+13юз61087100 0.0 1006393
14:00+14юз5987100 0.1 1006311
17:00+14юз5887100 0.0 1005256
20:00+13ююз7129414 0.0 1005287
6 октября, чт
чт623:00+13ююз1118900 0.0 1002469
02:00+13юз11178577 0.0 1001661
05:00+13зюз1018710 0.1 1001949
08:00+12зюз1118720 0.1 10031172
11:00+13зюз13206622 0.0 10041383
14:00+14зюз1220610 0.0 10051292
17:00+14зюз1219590 0.0 10071234
20:00+13зюз1221680 0.0 10071329
7 октября, пт
пт723:00+12зюз1320700 0.0 10091273
02:00+11з1219700 0.0 10101168
05:00+11зюз11187131 0.0 10111053
08:00+11зюз10167823 0.0 1012869
11:00+13юз11167179 0.0 1012832
14:00+13юз131982100 0.0 1010917
17:00+14юз131979100 0.0 1007982
20:00+13юз131981100 0.1 1005911